Location: São Paulo
(23.5507°S, 46.6334°W)
Time: 07:55:00
(UTC-03:00)

Explorer 7 - Pass Details

Date: 24 February 2026
Orbit: 430 x 541 km, 50.2° (Epoch: 11 March)

Event Time Altitude Azimuth Distance (km) Brightness Sun altitude
Rises 08:53:00 0° 239° (WSW) 2,529 9.8 38.7°
Reaches altitude 10° 08:55:32 10° 255° (WSW) 1,621 8.8 39.3°
Maximum altitude 08:58:24 22° 306° (NW) 1,055 8.1 40.0°
Drops below altitude 10° 09:01:09 10° 358° (N) 1,562 9.3 40.6°
Sets 09:03:33 0° 14° (NNE) 2,408 10.3 41.1°
